sat.trackr.live / text

‹ back to catalog

NIGHTJAR

NORAD 60535 · 2024-149BV

PAYLOAD ACTIVE UNKNOWN

§ Identity

Operator
Country
ROC
Launch date
2024-08-16
Launch site
AFWTR
Launch vehicle
Mass (kg)
RCS (m²)

External: N2YO · Heavens-Above · Gunter

§ Orbital elements

Epoch: 2026-09-22T20:01:08.758560Z

Period
96.03 min
Inclination
97.6794°
Eccentricity
0.0003841
Mean motion
14.99499432 rev/d
Perigee alt
565.8 km
Apogee alt
571.1 km
Semi-major
6,946.6 km
B*
2.2219e-4
RAAN
341.1687°
Arg perigee
94.7411°
Mean anomaly
265.4251°
Rev number
15,750

§ Raw data

NIGHTJAR1 60535U 24149BV  26265.83412915  .00002669  00000+0  22219-3 0  99942 60535  97.6794 341.1687 0003841  94.7411 265.4251 14.99499432157502

JSON: /api/v1/satellites/60535 · /tle

For live sub-satellite position, see the globe view (requires WebGL).

§ Visibility from observer

Set your observer location to see the next 7 days of passes ≥ 10°. The values pass through the URL so the page stays shareable.

No JS? Fill the form by hand. The geolocation button needs JavaScript.

§ Radio — SatNOGS DB

ModeDescriptionDownlinkUplink
GFSK UHF 9k6 Telemetry 435.350 MHz

1 transmitter · refreshed weekly from db.satnogs.org